Weather History for Homestead AFB, FL

Change the Weather History Date:

Monday, April 22, 2013

  Actual Average Record
Temperature  
Mean Temperature 78 °F -  
Max Temperature 84 °F 85 °F 94 °F (1935)
Min Temperature 71 °F 64 °F 41 °F (1940)
Cooling Degree Days 12    
Growing Degree Days 28 (Base 50)    
Moisture  
Dew Point 70 °F    
Average Humidity 83    
Maximum Humidity 95    
Minimum Humidity 62    
Precipitation  
Precipitation 0.64 in - - ()
Sea Level Pressure  
Sea Level Pressure 30.01 in    
Wind  
Wind Speed 7 mph (NE)    
Max Wind Speed 18 mph    
Max Gust Speed 24 mph    
Visibility 9 miles    
Events Rain , Thunderstorm    
Averages and records for this station are not official NWS values.
T = Trace of Precipitation, MM = Missing Value Source: NWS Daily Summary

Daily Weather History Graph

Daily Weather History Graph

Search for Another Location

Airport:

Trip Planner

Search our weather history database for the weather conditions in past years. The results will help you decide how hot, cold, wet, or windy it might be!

Date:

Astronomy

Apr. 22, 2013 Rise Set
Actual Time 6:52 AM EDT 7:48 PM EDT
Civil Twilight 6:28 AM EDT 8:11 PM EDT
Nautical Twilight 6:00 AM EDT 8:39 PM EDT
Astronomical Twilight 5:31 AM EDT 9:08 PM EDT
Moon 4:52 PM EDT (4/22) 4:25 AM EDT (4/22)
Length of Visible Light 13h 43m
Length of Day
12h 55m
Waxing Gibbous, 87% of the Moon is Illuminated
Apr 22
Waxing Gibbous
Apr 25
Full
May 2
Last Quarter
May 9
New
May 18
First Quarter

Hourly Weather History & Observations

Time (EDT) Temp. Heat Index Dew Point Humidity Pressure Visibility Wind Dir Wind Speed Gust Speed Precip Events Conditions
12:58 AM 75.0 °F - 70.3 °F 85% 30.05 in 10.0 mi East 3.5 mph - N/A   Clear
1:58 AM 73.6 °F - 70.5 °F 90% 30.05 in 10.0 mi WNW 4.6 mph - N/A   Clear
2:58 AM 73.0 °F - 70.9 °F 93% 30.01 in 10.0 mi NNW 5.8 mph - N/A   Scattered Clouds
3:32 AM 73.4 °F - 71.6 °F 94% 30.00 in 3.0 mi SW 11.5 mph - N/A Rain Heavy Rain
3:37 AM 73.4 °F - 69.8 °F 88% 29.99 in 1.2 mi West 5.8 mph - N/A Rain Heavy Rain
3:47 AM 73.4 °F - 71.6 °F 94% 29.99 in 8.0 mi NW 3.5 mph - N/A Rain Light Rain
3:52 AM 73.4 °F - 71.6 °F 94% 29.99 in 10.0 mi North 4.6 mph - N/A Rain Light Rain
3:54 AM 73.4 °F - 71.6 °F 94% 29.99 in 10.0 mi NNW 4.6 mph - N/A   Scattered Clouds
3:58 AM 73.4 °F - 70.9 °F 92% 30.00 in 10.0 mi NNW 5.8 mph - 0.26 in   Scattered Clouds
4:58 AM 71.8 °F - 70.3 °F 95% 30.01 in 10.0 mi NW 4.6 mph - N/A   Clear
5:08 AM 71.6 °F - 69.8 °F 94% 30.00 in 9.0 mi WNW 3.5 mph - N/A   Partly Cloudy
5:09 AM 71.6 °F - 69.8 °F 94% 30.00 in 6.0 mi NW 2.3 mph - N/A Rain Light Rain
5:14 AM 71.6 °F - 69.8 °F 94% 30.00 in 4.0 mi NNW 4.6 mph - N/A Rain Heavy Rain
5:19 AM 71.6 °F - 69.8 °F 94% 30.00 in 5.0 mi NW 6.9 mph - N/A Rain Light Rain
5:24 AM 71.6 °F - 69.8 °F 94% 30.00 in 10.0 mi WNW 6.9 mph - N/A Rain Light Rain
5:58 AM 71.4 °F - 70.0 °F 95% 30.00 in 10.0 mi Variable 5.8 mph - 0.04 in   Light Drizzle
6:13 AM 71.6 °F - 69.8 °F 94% 30.00 in 10.0 mi North 5.8 mph - N/A   Scattered Clouds
6:18 AM 71.6 °F - 69.8 °F 94% 30.00 in 10.0 mi NNE 4.6 mph - N/A   Mostly Cloudy
6:23 AM 71.6 °F - 69.8 °F 94% 30.00 in 10.0 mi NNE 5.8 mph - N/A   Scattered Clouds
6:58 AM 72.0 °F - 70.2 °F 94% 30.01 in 10.0 mi ENE 3.5 mph - 0.00 in   Clear
7:58 AM 73.2 °F - 71.6 °F 95% 30.02 in 10.0 mi SE 6.9 mph - N/A   Clear
8:58 AM 74.3 °F - 71.2 °F 90% 30.04 in 10.0 mi East 5.8 mph - N/A   Partly Cloudy
9:23 AM 75.2 °F - 71.6 °F 89% 30.04 in 10.0 mi ESE 6.9 mph - N/A   Mostly Cloudy
9:28 AM 75.2 °F - 71.6 °F 89% 30.04 in 10.0 mi ESE 9.2 mph - N/A   Mostly Cloudy
9:58 AM 76.6 °F - 70.5 °F 81% 30.06 in 10.0 mi ESE 9.2 mph - N/A   Clear
10:48 AM 78.8 °F - 69.8 °F 74% 30.05 in 10.0 mi East 10.4 mph - N/A   Scattered Clouds
10:58 AM 79.7 °F - 70.7 °F 74% 30.06 in 10.0 mi ESE 10.4 mph - N/A   Scattered Clouds
11:58 AM 79.5 °F - 68.7 °F 69% 30.06 in 10.0 mi SSE 11.5 mph - N/A   Partly Cloudy
12:33 PM 78.8 °F - 71.6 °F 78% 30.04 in 10.0 mi SE 9.2 mph - N/A   Mostly Cloudy
12:40 PM 78.8 °F - 71.6 °F 78% 30.04 in 10.0 mi ESE 8.1 mph - N/A Rain Light Rain
12:50 PM 77.0 °F - 71.6 °F 83% 30.03 in 4.0 mi ESE 6.9 mph - N/A Rain Rain
12:58 PM 75.2 °F - 71.6 °F 89% 30.04 in 5.0 mi ESE 10.4 mph - 0.33 in Rain Rain
1:08 PM 75.2 °F - 71.6 °F 89% 30.02 in 9.0 mi ESE 9.2 mph - N/A Rain Light Rain
1:22 PM 78.8 °F - 71.6 °F 78% 30.02 in 10.0 mi ESE 8.1 mph - N/A   Partly Cloudy
1:33 PM 80.6 °F 84.6 °F 71.6 °F 74% 30.01 in 10.0 mi SE 8.1 mph - N/A   Light Drizzle
1:42 PM 80.6 °F 84.6 °F 71.6 °F 74% 30.01 in 10.0 mi South 8.1 mph - N/A   Scattered Clouds
1:58 PM 81.1 °F 84.9 °F 70.5 °F 70% 30.01 in 10.0 mi SSE 9.2 mph - 0.01 in   Scattered Clouds
2:20 PM 78.8 °F - 68.0 °F 69% 30.00 in 10.0 mi South 9.2 mph - N/A Rain Light Rain
2:34 PM 78.8 °F - 68.0 °F 69% 30.00 in 10.0 mi South 8.1 mph - N/A   Partly Cloudy
2:58 PM 79.2 °F - 68.9 °F 71% 30.00 in 10.0 mi Variable 6.9 mph - 0.00 in   Partly Cloudy
3:37 PM 80.6 °F 83.9 °F 69.8 °F 70% 29.96 in 10.0 mi SE 3.5 mph - N/A   Light Drizzle
3:43 PM 82.4 °F 86.3 °F 69.8 °F 66% 29.95 in 10.0 mi Variable 4.6 mph - N/A   Clear
3:58 PM 81.9 °F 85.4 °F 69.6 °F 66% 29.96 in 10.0 mi Variable 3.5 mph - 0.00 in   Partly Cloudy
3:59 PM 82.4 °F 86.3 °F 69.8 °F 66% 29.95 in 10.0 mi Variable 3.5 mph - N/A   Light Drizzle
4:06 PM 84.2 °F 88.4 °F 69.8 °F 62% 29.95 in 10.0 mi Variable 3.5 mph - N/A   Partly Cloudy
4:58 PM 84.2 °F 88.7 °F 70.3 °F 63% 29.95 in 10.0 mi WSW 6.9 mph - 0.00 in   Clear
5:58 PM 80.4 °F 83.6 °F 70.0 °F 70% 29.94 in 10.0 mi SSW 4.6 mph - N/A   Partly Cloudy
6:26 PM 80.6 °F 84.6 °F 71.6 °F 74% 29.95 in 10.0 mi WNW 3.5 mph - N/A Rain Light Rain
6:37 PM 80.6 °F 84.6 °F 71.6 °F 74% 29.95 in 10.0 mi NNW 12.7 mph - N/A   Mostly Cloudy
6:58 PM 78.6 °F - 71.1 °F 78% 29.97 in 10.0 mi NW 8.1 mph - 0.00 in   Scattered Clouds
7:58 PM 77.2 °F - 70.7 °F 80% 29.99 in 10.0 mi NW 10.4 mph - N/A   Scattered Clouds
8:18 PM 75.2 °F - 68.0 °F 78% 29.99 in 10.0 mi NNW 18.4 mph 24.2 mph N/A Thunderstorm Mostly Cloudy
8:25 PM 75.2 °F - 68.0 °F 78% 30.00 in 10.0 mi North 17.3 mph - N/A Thunderstorm Overcast
8:45 PM 73.4 °F - 68.0 °F 83% 30.01 in 10.0 mi North 12.7 mph - N/A   Overcast
8:58 PM 72.7 °F - 68.4 °F 86% 30.03 in 10.0 mi NE 16.1 mph - N/A   Overcast
9:58 PM 72.1 °F - 68.2 °F 87% 30.03 in 10.0 mi NE 9.2 mph - N/A   Partly Cloudy
10:58 PM 72.1 °F - 68.0 °F 87% 30.03 in 10.0 mi NE 12.7 mph - N/A   Mostly Cloudy
11:58 PM 72.3 °F - 68.0 °F 86% 30.03 in 10.0 mi North 8.1 mph - N/A   Partly Cloudy